CW5439 Weather Reports


time (UTC)temp
C
wind
direction
speed
KPH
gust
KPH
rain 1hr
cm
rain 24hr
cm
rain mn
cm
humidity
%
barometer
mb
20260831151205 17 257 11.3 22.5 0.00 0.56 0.03 77 1008.1
20260831150205 17 165 9.7 24.1 0.00 0.56 0.03 78 1008.0
20260831145708 17 263 9.7 24.1 0.00 0.56 0.03 78 1007.9
20260831145205 17 331 9.7 24.1 0.00 0.56 0.03 77 1007.8
20260831144705 17 170 11.3 24.1 0.00 0.56 0.03 76 1007.8
20260831144210 17 252 9.7 19.3 0.00 0.56 0.03 76 1007.7
20260831143704 17 259 8.0 17.7 0.00 0.56 0.03 77 1007.7
20260831142708 18 227 8.0 22.5 0.00 0.56 0.03 77 1007.6
20260831142205 18 303 8.0 22.5 0.00 0.56 0.03 77 1007.6
20260831141708 18 261 8.0 22.5 0.00 0.56 0.03 77 1007.6
20260831141205 18 257 8.0 33.8 0.00 0.56 0.03 77 1007.5
20260831140705 18 253 11.3 33.8 0.00 0.56 0.03 76 1007.5
20260831140205 18 269 16.1 20.9 0.00 0.56 0.03 76 1007.4
20260831135705 18 294 12.9 20.9 0.00 0.56 0.03 76 1007.4
20260831135205 17 290 8.0 20.9 0.00 0.56 0.03 78 1007.4
20260831134705 17 278 6.4 20.9 0.00 0.56 0.03 77 1007.4
20260831134205 17 267 8.0 20.9 0.00 0.56 0.03 77 1007.4
20260831133207 18 274 9.7 20.9 0.00 0.56 0.03 78 1007.4
20260831132705 18 269 11.3 25.7 0.00 0.56 0.03 76 1007.3
20260831131705 18 257 9.7 19.3 0.00 0.56 0.03 77 1007.2
20260831130205 18 211 8.0 17.7 0.00 0.56 0.03 77 1006.9
20260831125705 18 296 8.0 17.7 0.00 0.56 0.03 78 1006.8
20260831125205 18 277 6.4 16.1 0.00 0.56 0.03 79 1006.7
20260831124708 18 238 6.4 16.1 0.00 0.56 0.03 79 1006.7
20260831124205 18 296 4.8 24.1 0.00 0.56 0.03 80 1006.7
20260831123709 18 234 4.8 24.1 0.00 0.56 0.03 81 1006.6
20260831123206 18 264 6.4 24.1 0.00 0.56 0.03 82 1006.7
20260831122706 17 246 9.7 25.7 0.00 0.56 0.03 81 1006.7
20260831122206 17 288 8.0 25.7 0.00 0.56 0.03 80 1006.6
20260831121705 17 275 8.0 29.0 0.00 0.58 0.03 81 1006.6
20260831121205 17 252 11.3 29.0 0.00 0.58 0.03 81 1006.5
20260831120705 17 242 11.3 30.6 0.00 0.58 0.03 78 1006.5
20260831120205 18 257 11.3 30.6 0.00 0.58 0.03 78 1006.4
20260831115705 18 214 9.7 22.5 0.00 0.64 0.03 77 1006.3
20260831115206 19 255 9.7 22.5 0.00 0.64 0.03 77 1006.2
20260831114705 19 269 11.3 24.1 0.00 0.71 0.03 78 1006.1
20260831114205 19 274 11.3 24.1 0.00 0.71 0.03 80 1006.0
20260831113705 18 280 8.0 20.9 0.00 0.84 0.03 83 1006.0
20260831113205 17 232 6.4 20.9 0.00 0.84 0.03 82 1006.0
20260831112705 18 238 8.0 22.5 0.00 0.84 0.03 81 1006.0
20260831112205 18 209 8.0 22.5 0.00 0.86 0.03 80 1006.0
20260831111705 18 210 6.4 22.5 0.00 0.86 0.03 79 1006.0
20260831111205 19 265 6.4 17.7 0.00 0.89 0.03 79 1005.9
20260831110705 19 278 8.0 17.7 0.00 0.89 0.03 80 1005.8
20260831110224 20 286 6.4 14.5 0.00 0.91 0.03 78 1005.8
20260831105207 19 226 4.8 14.5 0.00 0.91 0.03 81 1005.8
20260831104705 18 192 4.8 20.9 0.00 0.99 0.03 83 1005.8
20260831104205 18 249 4.8 20.9 0.00 0.99 0.03 85 1005.7
20260831103205 18 232 6.4 20.9 0.00 1.02 0.03 84 1005.7
20260831102705 18 275 4.8 17.7 0.00 1.02 0.03 85 1005.6
20260831102205 18 180 4.8 17.7 0.00 1.02 0.03 86 1005.6
20260831101704 18 275 4.8 17.7 0.00 1.02 0.03 88 1005.4
20260831100720 17 226 4.8 14.5 0.00 1.02 0.03 92 1005.4
20260831100205 16 197 4.8 16.1 0.00 1.02 0.03 93 1005.3
20260831095205 15 277 4.8 16.1 0.00 1.02 0.03 96 1005.2
20260831094705 15 208 4.8 19.3 0.00 1.04 0.03 96 1005.2
20260831093708 15 219 6.4 12.9 0.00 1.04 0.03 96 1005.0
20260831093205 15 264 6.4 12.9 0.00 1.04 0.03 96 1005.0
20260831092706 15 252 4.8 17.7 0.00 1.04 0.03 97 1005.0
20260831092205 15 304 4.8 17.7 0.00 1.04 0.03 97 1004.9
20260831091704 15 205 4.8 17.7 0.00 1.04 0.03 97 1004.9
20260831091205 15 232 4.8 14.5 0.00 1.04 0.03 97 1004.8
20260831090706 15 186 3.2 14.5 0.00 1.04 0.03 97 1004.7
20260831090205 15 240 3.2 16.1 0.00 1.04 0.03 97 1004.7
20260831085705 15 234 4.8 16.1 0.00 1.04 0.03 96 1004.7
20260831085205 15 227 4.8 16.1 0.00 1.04 0.03 96 1004.6
20260831084705 15 221 3.2 16.1 0.00 1.04 0.03 96 1004.6
20260831084205 15 273 3.2 16.1 0.00 1.04 0.03 97 1004.5
20260831083705 15 245 3.2 9.7 0.00 1.04 0.03 97 1004.5
20260831083205 15 259 1.6 9.7 0.00 1.04 0.03 97 1004.5
20260831082705 15 250 1.6 12.9 0.00 1.04 0.03 97 1004.5
20260831082205 15 259 1.6 12.9 0.00 1.04 0.03 97 1004.4
20260831081706 15 207 1.6 12.9 0.00 1.04 0.03 96 1004.3
20260831081205 15 245 1.6 6.4 0.00 1.04 0.03 97 1004.2
20260831080704 15 281 1.6 6.4 0.00 1.04 0.03 97 1004.2
20260831080205 15 267 1.6 6.4 0.00 1.07 0.03 97 1004.1
20260831075705 15 226 1.6 6.4 0.00 1.07 0.03 97 1004.1
20260831075204 14 232 0.0 6.4 0.00 1.07 0.03 97 1004.0
20260831073705 14 271 0.0 3.2 0.00 1.09 0.03 97 1004.0
20260831073205 13 231 0.0 3.2 0.00 1.09 0.03 97 1003.9
20260831072205 13 212 0.0 1.6 0.00 1.09 0.03 97 1003.8
20260831071205 13 245 0.0 4.8 0.00 1.09 0.03 96 1003.7
20260831070705 13 263 0.0 4.8 0.00 1.09 0.03 96 1003.7
20260831070205 13 225 0.0 6.4 0.00 1.09 0.03 97 1003.7
20260831064707 13 232 0.0 3.2 0.00 1.09 0.03 97 1003.5
20260831064205 12 231 0.0 3.2 0.00 1.09 0.03 96 1003.5
20260831063705 12 317 0.0 4.8 0.00 1.09 0.03 96 1003.4
20260831061705 12 222 1.6 4.8 0.00 1.09 0.03 96 1003.2
20260831055705 12 206 1.6 4.8 0.00 1.14 0.03 96 1002.8
20260831055206 12 217 1.6 4.8 0.00 1.14 0.03 96 1002.8
20260831054705 12 208 1.6 4.8 0.00 1.19 0.03 96 1002.8
20260831054208 12 208 1.6 4.8 0.00 1.19 0.03 96 1002.8
20260831053705 12 206 1.6 6.4 0.00 1.24 0.03 96 1002.7
20260831053206 12 206 1.6 6.4 0.00 1.24 0.03 96 1002.6
20260831052705 12 206 0.0 8.0 0.03 1.24 0.03 96 1002.6
20260831052205 12 206 1.6 8.0 0.03 1.27 0.03 96 1002.6
20260831051705 12 221 3.2 8.0 0.03 1.27 0.03 96 1002.6
20260831050730 12 207 4.8 8.0 0.03 1.27 0.03 96 1002.5
20260831050205 12 211 3.2 1.6 0.03 1.30 0.03 96 1002.4
20260831045705 12 207 0.0 1.6 0.03 1.30 0.03 96 1002.3
20260831045205 12 207 0.0 1.6 0.03 1.30 0.03 96 1002.2
20260831044705 12 207 0.0 1.6 0.03 1.30 0.03 96 1002.2
20260831044205 12 246 0.0 1.6 0.03 1.30 0.03 96 1002.1
20260831043706 12 270 0.0 1.6 0.03 1.30 0.03 96 1002.1
20260831043205 12 274 0.0 1.6 0.03 1.30 0.03 96 1002.1
20260831042208 12 276 0.0 3.2 0.00 1.27 0.00 96 1002.1
20260831041705 12 276 0.0 3.2 0.00 1.27 0.00 96 1002.0
20260831041205 12 254 0.0 3.2 0.00 1.27 0.00 96 1002.1
20260831040731 12 232 0.0 1.6 0.00 1.27 0.00 96 1002.2
20260831040206 12 211 0.0 1.6 0.00 1.27 0.00 96 1002.2
20260831035707 12 277 0.0 1.6 0.00 1.27 0.00 96 1002.2
20260831035205 12 277 0.0 1.6 0.00 1.27 0.00 96 1002.1
20260831034705 12 272 0.0 1.6 0.00 1.27 0.00 96 1002.1
20260831034205 12 238 0.0 1.6 0.00 1.27 0.00 96 1002.1
20260831033205 12 238 0.0 1.6 0.00 1.27 0.00 96 1002.0
20260831032720 12 238 0.0 1.6 0.00 1.27 0.00 96 1002.0
20260831032205 12 238 0.0 1.6 0.00 1.27 0.00 96 1001.9
20260831031705 12 238 0.0 1.6 0.00 1.27 0.00 96 1001.9
20260831031205 12 238 0.0 1.6 0.00 1.27 0.00 96 1001.9
20260831030705 12 238 0.0 1.6 0.00 1.27 0.00 96 1001.8
20260831030205 12 238 0.0 0.0 0.00 1.27 0.00 96 1001.8
20260831025705 12 238 0.0 0.0 0.00 1.27 0.00 96 1001.8
20260831024705 12 238 0.0 1.6 0.00 1.27 0.00 96 1001.8
20260831024205 12 238 0.0 1.6 0.00 1.27 0.00 96 1001.8
20260831023705 12 238 0.0 1.6 0.00 1.27 0.00 96 1001.7
20260831022205 13 340 0.0 1.6 0.00 1.30 0.00 96 1001.7
20260831021705 13 340 0.0 1.6 0.00 1.30 0.00 96 1001.7
20260831021207 13 340 0.0 1.6 0.00 1.30 0.00 96 1001.7
20260831020704 13 340 0.0 0.0 0.00 1.30 0.00 96 1001.7
20260831015705 13 340 0.0 1.6 0.00 1.30 0.00 96 1001.7
20260831015206 13 340 0.0 1.6 0.00 1.30 0.00 96 1001.7
20260831014705 13 340 0.0 3.2 0.00 1.30 0.00 96 1001.7
20260831014205 13 340 0.0 3.2 0.00 1.30 0.00 96 1001.7
20260831013205 13 340 0.0 6.4 0.00 1.30 0.00 96 1001.7
20260831012707 13 340 1.6 6.4 0.00 1.30 0.00 96 1001.7
20260831012205 13 340 1.6 6.4 0.00 1.30 0.00 96 1001.7
20260831010708 13 296 1.6 4.8 0.00 1.30 0.00 96 1001.7
20260831010205 13 296 1.6 1.6 0.00 1.30 0.00 96 1001.7
20260831005705 13 296 0.0 1.6 0.00 1.30 0.00 96 1001.7
20260831005205 13 296 0.0 1.6 0.00 1.30 0.00 96 1001.7
20260831004705 13 296 0.0 1.6 0.00 1.30 0.00 96 1001.7
20260831004205 13 296 0.0 1.6 0.00 1.30 0.00 96 1001.7
20260831003705 13 296 0.0 3.2 0.00 1.30 0.00 96 1001.6
20260831002704 13 296 0.0 3.2 0.00 1.30 0.00 96 1001.6
20260831002208 13 296 0.0 3.2 0.00 1.30 0.00 96 1001.7
20260831001705 13 296 0.0 3.2 0.00 1.30 0.00 96 1001.7
20260831001205 13 296 0.0 0.0 0.00 1.30 0.00 96 1001.7
20260831000704 13 296 0.0 3.2 0.00 1.30 0.00 95 1001.6
20260831000205 13 296 0.0 3.2 0.00 1.30 0.00 96 1001.5
20260830235205 13 296 0.0 3.2 0.00 1.32 0.00 96 1001.5
20260830234706 13 296 0.0 3.2 0.00 1.35 0.00 96 1001.5
20260830234205 13 296 0.0 3.2 0.00 1.35 0.00 96 1001.5
20260830233705 13 296 0.0 3.2 0.00 1.35 0.00 96 1001.5
20260830233205 13 296 0.0 1.6 0.00 1.35 0.00 96 1001.5
20260830232705 13 296 0.0 1.6 0.00 1.35 0.00 96 1001.5
20260830232206 13 296 0.0 1.6 0.00 1.35 0.00 96 1001.5
20260830231705 13 286 0.0 3.2 0.00 1.35 0.00 96 1001.6
20260830231205 13 286 0.0 3.2 0.00 1.35 0.00 96 1001.6
20260830230205 13 287 0.0 1.6 0.00 1.35 1.35 96 1001.6
20260830225708 13 76 0.0 1.6 0.00 1.35 1.35 96 1001.7
20260830225205 13 76 0.0 1.6 0.00 1.35 1.35 95 1001.7
20260830224705 13 76 0.0 0.0 0.00 1.35 1.35 95 1001.8
20260830224211 13 76 0.0 0.0 0.00 1.35 1.35 95 1001.8
20260830223705 13 76 0.0 0.0 0.00 1.35 1.35 96 1001.7
20260830223205 13 76 0.0 0.0 0.00 1.35 1.35 96 1001.7
20260830222706 13 76 0.0 0.0 0.00 1.35 1.35 96 1001.7
20260830222206 13 76 0.0 0.0 0.00 1.35 1.35 96 1001.7
20260830221205 13 76 0.0 0.0 0.00 1.35 1.35 95 1001.9
20260830220705 14 76 0.0 1.6 0.00 1.35 1.35 95 1001.9
20260830220205 14 76 0.0 1.6 0.00 1.35 1.35 95 1001.9
20260830215219 14 76 0.0 1.6 0.00 1.35 1.35 95 1001.9
20260830214705 14 76 0.0 1.6 0.00 1.35 1.35 95 1001.8
20260830214204 14 76 0.0 1.6 0.00 1.35 1.35 96 1001.8
20260830213706 14 76 0.0 0.0 0.00 1.35 1.35 95 1001.8
20260830212705 14 76 0.0 4.8 0.00 1.35 1.35 95 1001.7
20260830211705 14 76 0.0 4.8 0.00 1.35 1.35 95 1001.7
20260830211205 14 76 1.6 4.8 0.00 1.35 1.35 95 1001.7
20260830210705 14 76 1.6 1.6 0.00 1.35 1.35 95 1001.7
20260830210205 14 76 0.0 1.6 0.00 1.35 1.35 95 1001.8
20260830205705 14 26 0.0 1.6 0.00 1.35 1.35 95 1001.7
20260830205206 14 26 1.6 1.6 0.00 1.35 1.35 95 1001.8
20260830204705 14 26 0.0 1.6 0.00 1.35 1.35 95 1001.9
20260830204206 14 26 0.0 1.6 0.00 1.35 1.35 95 1001.9
20260830203705 14 26 0.0 3.2 0.00 1.35 1.35 95 1001.8
20260830203205 14 26 0.0 3.2 0.00 1.35 1.35 95 1001.8
20260830202204 14 26 0.0 3.2 0.00 1.35 1.35 95 1001.7
20260830201705 14 26 0.0 3.2 0.00 1.35 1.35 95 1001.8
20260830201234 14 26 0.0 3.2 0.00 1.35 1.35 95 1001.8
20260830200705 14 26 0.0 3.2 0.00 1.35 1.35 95 1001.9
20260830200205 14 26 1.6 4.8 0.00 1.35 1.35 95 1001.9
20260830195205 14 26 0.0 4.8 0.00 1.35 1.35 95 1001.9
20260830194705 14 26 1.6 4.8 0.00 1.35 1.35 95 1001.9
20260830194205 14 26 1.6 4.8 0.00 1.35 1.35 95 1001.9
20260830193705 14 17 1.6 3.2 0.00 1.35 1.35 95 1001.9
20260830193205 14 17 1.6 3.2 0.00 1.35 1.35 95 1001.9
20260830192206 14 15 0.0 3.2 0.00 1.35 1.35 95 1001.9
20260830191705 14 9 1.6 3.2 0.00 1.35 1.35 95 1001.9
20260830191205 14 9 1.6 6.4 0.00 1.35 1.35 95 1002.0
20260830190705 14 107 0.0 6.4 0.00 1.35 1.35 95 1001.9
20260830190205 15 107 1.6 6.4 0.00 1.35 1.35 95 1001.9
20260830185705 15 107 3.2 6.4 0.00 1.35 1.35 95 1001.9
20260830185205 15 107 3.2 6.4 0.00 1.35 1.35 95 1002.0
20260830184705 15 101 3.2 9.7 0.00 1.35 1.35 95 1002.0
20260830184205 15 111 4.8 9.7 0.00 1.35 1.35 95 1002.0
20260830183705 15 96 4.8 12.9 0.00 1.35 1.35 95 1002.0
20260830183206 15 97 4.8 11.3 0.00 1.35 1.35 95 1002.0
20260830181704 15 88 4.8 9.7 0.03 1.35 1.35 94 1002.0
20260830181205 15 73 1.6 6.4 0.05 1.35 1.35 94 1002.1
20260830180705 15 79 1.6 4.8 0.05 1.35 1.35 95 1002.1
20260830180205 15 79 1.6 6.4 0.05 1.35 1.35 95 1002.1
20260830175706 15 79 3.2 6.4 0.05 1.35 1.35 95 1002.2
20260830175205 15 79 3.2 6.4 0.05 1.35 1.35 94 1002.1
20260830174705 15 79 1.6 6.4 0.15 1.35 1.35 94 1002.2
20260830174204 15 74 1.6 6.4 0.15 1.35 1.35 94 1002.2
20260830173705 15 78 3.2 11.3 0.41 1.35 1.35 94 1002.3
20260830173205 15 69 3.2 12.9 0.53 1.35 1.35 94 1002.4
20260830172705 15 80 4.8 12.9 0.51 1.32 1.35 94 1002.4
20260830172205 15 97 6.4 12.9 0.51 1.32 1.27 94 1002.4
20260830171705 15 80 6.4 12.9 0.48 1.27 1.27 94 1002.5
20260830171205 15 107 6.4 12.9 0.48 1.27 1.27 94 1002.5
20260830170705 15 119 6.4 12.9 0.48 1.27 1.27 94 1002.6
20260830170205 15 104 4.8 12.9 0.48 1.27 1.27 93 1002.5
20260830165705 15 71 4.8 12.9 0.48 1.27 1.27 93 1002.5
20260830165205 15 91 6.4 12.9 0.48 1.27 1.27 93 1002.6
20260830164705 15 97 4.8 12.9 0.36 1.17 1.24 93 1002.7
20260830163705 15 143 6.4 12.9 0.10 0.89 0.89 93 1002.7
20260830163205 15 97 6.4 14.5 0.03 0.79 0.79 93 1002.6
20260830162704 15 90 6.4 14.5 0.00 0.79 0.79 93 1002.5
20260830162206 15 90 6.4 14.5 0.00 0.79 0.79 93 1002.5
20260830161705 15 47 8.0 14.5 0.00 0.79 0.79 93 1002.5
20260830161205 15 125 8.0 16.1 0.00 0.79 0.79 93 1002.4
20260830160705 15 85 8.0 17.7 0.00 0.79 0.79 93 1002.4
20260830160204 15 61 9.7 17.7 0.00 0.79 0.79 93 1002.3
20260830155705 15 55 9.7 17.7 0.00 0.79 0.79 93 1002.2
20260830155204 15 90 8.0 17.7 0.00 0.79 0.79 93 1002.3
20260830154205 15 61 8.0 16.1 0.00 0.79 0.79 93 1002.2
20260830153705 15 73 9.7 16.1 0.00 0.79 0.79 93 1002.3
20260830153205 16 88 8.0 16.1 0.00 0.79 0.79 93 1002.4
20260830152705 16 88 9.7 16.1 0.00 0.79 0.79 93 1002.4
20260830152206 16 80 9.7 16.1 0.00 0.79 0.79 93 1002.4